Location: Asheville, NC
(35.6000°N, 82.5500°W)
Time: 15:32:36
(UTC-04:00)

Vanguard 2 - Pass Details

Date: 13 March 2018
Orbit: 554 x 2939 km, 32.9° (Epoch: 24 June)

Event Time Altitude Azimuth Distance (km) Brightness Sun altitude
Rises 11:54:41 0° 238° (WSW) 5,491 11.8 44.5°
Reaches altitude 10° 11:57:53 10° 235° (SW) 4,755 11.7 44.9°
Maximum altitude 12:12:20 65° 157° (SSE) 2,990 12.2 46.5°
Drops below altitude 10° 12:30:00 10° 82° (E) 5,688 12.2 48.3°
Sets 12:34:15 0° 80° (E) 6,582 12.4 48.7°
